TimeCST,TemperatureF,Dew PointF,Humidity,Sea Level PressureIn,VisibilityMPH,Wind Direction,Wind SpeedMPH,Gust SpeedMPH,PrecipitationIn,Events,Conditions,WindDirDegrees,DateUTC
1:55 AM,35.6,28.4,75,30.44,10.0,South,3.5,-,N/A,,Clear,180,2013-11-29 07:55:00
2:15 AM,35.6,28.4,75,30.44,10.0,South,3.5,-,N/A,,Scattered Clouds,180,2013-11-29 08:15:00
3:15 AM,33.8,26.6,75,30.45,10.0,South,3.5,-,N/A,,Clear,170,2013-11-29 09:15:00
3:35 AM,33.8,28.4,81,30.45,10.0,Calm,Calm,-,N/A,,Clear,0,2013-11-29 09:35:00
3:55 AM,32.0,26.6,80,30.45,10.0,Calm,Calm,-,N/A,,Clear,0,2013-11-29 09:55:00
8:55 AM,39.2,33.8,81,30.47,10.0,South,5.8,-,N/A,,Clear,170,2013-11-29 14:55:00
9:55 AM,44.6,33.8,66,30.47,10.0,South,6.9,-,N/A,,Clear,170,2013-11-29 15:55:00
10:15 AM,46.4,35.6,66,30.46,10.0,South,8.1,-,N/A,,Clear,170,2013-11-29 16:15:00
10:35 AM,50.0,35.6,58,30.46,10.0,SSE,6.9,-,N/A,,Clear,160,2013-11-29 16:35:00
10:55 AM,51.8,35.6,54,30.46,10.0,South,8.1,-,N/A,,Clear,180,2013-11-29 16:55:00
11:15 AM,53.6,35.6,51,30.45,10.0,South,6.9,-,N/A,,Clear,170,2013-11-29 17:15:00
11:35 AM,55.4,35.6,47,30.44,10.0,South,9.2,-,N/A,,Clear,190,2013-11-29 17:35:00
11:55 AM,55.4,33.8,44,30.43,10.0,South,8.1,-,N/A,,Clear,180,2013-11-29 17:55:00
12:15 PM,57.2,35.6,44,30.42,10.0,South,5.8,-,N/A,,Clear,180,2013-11-29 18:15:00
12:55 PM,59.0,35.6,42,30.38,10.0,South,8.1,-,N/A,,Clear,170,2013-11-29 18:55:00
1:15 PM,60.8,33.8,36,30.37,10.0,SSW,9.2,-,N/A,,Clear,200,2013-11-29 19:15:00
1:35 PM,60.8,33.8,36,30.36,10.0,South,9.2,-,N/A,,Clear,180,2013-11-29 19:35:00
1:55 PM,60.8,33.8,36,30.35,10.0,SSW,9.2,-,N/A,,Clear,200,2013-11-29 19:55:00
2:15 PM,60.8,33.8,36,30.34,10.0,South,8.1,-,N/A,,Clear,170,2013-11-29 20:15:00
2:35 PM,60.8,33.8,36,30.33,10.0,South,11.5,-,N/A,,Clear,170,2013-11-29 20:35:00
2:55 PM,60.8,33.8,36,30.32,10.0,South,10.4,-,N/A,,Clear,180,2013-11-29 20:55:00
3:15 PM,60.8,33.8,36,30.31,10.0,South,11.5,-,N/A,,Clear,180,2013-11-29 21:15:00
3:35 PM,60.8,33.8,36,30.30,10.0,South,10.4,-,N/A,,Clear,180,2013-11-29 21:35:00
3:55 PM,60.8,33.8,36,30.30,10.0,South,10.4,-,N/A,,Clear,180,2013-11-29 21:55:00
4:15 PM,60.8,35.6,39,30.30,10.0,South,9.2,-,N/A,,Clear,190,2013-11-29 22:15:00
4:35 PM,59.0,33.8,39,30.30,10.0,South,9.2,-,N/A,,Clear,190,2013-11-29 22:35:00
4:55 PM,57.2,33.8,41,30.30,10.0,South,9.2,-,N/A,,Clear,190,2013-11-29 22:55:00
5:15 PM,55.4,33.8,44,30.29,10.0,South,8.1,-,N/A,,Clear,180,2013-11-29 23:15:00
5:35 PM,53.6,32.0,44,30.29,10.0,South,5.8,-,N/A,,Clear,170,2013-11-29 23:35:00
5:55 PM,51.8,33.8,50,30.29,10.0,South,6.9,-,N/A,,Clear,170,2013-11-29 23:55:00
6:15 PM,51.8,33.8,50,30.29,10.0,SSE,6.9,-,N/A,,Clear,160,2013-11-30 00:15:00
6:35 PM,51.8,35.6,54,30.29,10.0,SSE,8.1,-,N/A,,Clear,160,2013-11-30 00:35:00
6:55 PM,51.8,35.6,54,30.30,10.0,SSE,8.1,-,N/A,,Clear,160,2013-11-30 00:55:00
7:15 PM,51.8,35.6,54,30.30,10.0,SSE,9.2,-,N/A,,Clear,160,2013-11-30 01:15:00
7:35 PM,51.8,35.6,54,30.30,10.0,South,10.4,-,N/A,,Clear,170,2013-11-30 01:35:00
7:55 PM,51.8,35.6,54,30.30,10.0,South,9.2,-,N/A,,Clear,170,2013-11-30 01:55:00
8:15 PM,50.0,35.6,58,30.29,10.0,South,10.4,-,N/A,,Clear,170,2013-11-30 02:15:00
8:35 PM,48.2,35.6,62,30.29,10.0,South,10.4,-,N/A,,Clear,170,2013-11-30 02:35:00
8:55 PM,48.2,35.6,62,30.29,10.0,South,9.2,-,N/A,,Clear,180,2013-11-30 02:55:00
9:15 PM,48.2,35.6,62,30.29,10.0,South,10.4,-,N/A,,Clear,180,2013-11-30 03:15:00
9:35 PM,48.2,35.6,62,30.29,10.0,South,10.4,16.1,N/A,,Clear,180,2013-11-30 03:35:00
9:55 PM,48.2,35.6,62,30.30,10.0,South,9.2,-,N/A,,Clear,190,2013-11-30 03:55:00
10:15 PM,48.2,35.6,62,30.29,10.0,South,10.4,-,N/A,,Clear,180,2013-11-30 04:15:00
10:35 PM,48.2,35.6,62,30.29,10.0,South,9.2,-,N/A,,Clear,180,2013-11-30 04:35:00
10:55 PM,48.2,35.6,62,30.29,10.0,South,9.2,-,N/A,,Clear,180,2013-11-30 04:55:00
11:15 PM,46.4,35.6,66,30.29,10.0,South,6.9,-,N/A,,Clear,180,2013-11-30 05:15:00
11:35 PM,46.4,35.6,66,30.29,10.0,South,8.1,-,N/A,,Clear,190,2013-11-30 05:35:00
11:55 PM,44.6,35.6,71,30.29,10.0,South,8.1,-,N/A,,Clear,190,2013-11-30 05:55:00